Location: Poughquag
(41.6090°N, 73.6820°W)
Time: 10:55:06
(UTC-04:00)

Transit 4A - Pass Details

Date: 03 June 2020
Orbit: 866 x 978 km, 66.8° (Epoch: 06 July)

Event Time Altitude Azimuth Distance (km) Brightness Sun altitude
Rises 10:59:48 0° 326° (NNW) 3,577 10.7 59.5°
Reaches altitude 10° 11:02:20 10° 323° (NW) 2,647 10.1 59.9°
Maximum altitude 11:08:24 61° 245° (WSW) 1,072 9.0 60.9°
Drops below altitude 10° 11:14:36 10° 167° (SSE) 2,697 10.8 61.8°
Sets 11:17:11 0° 163° (SSE) 3,650 11.3 62.2°
